Home > Weather > Pueblo > Past weeks

Flag for USA Past Weather in Pueblo, Colorado, USA — Yesterday and Last 2 Weeks

Now
62 °F

Broken clouds.


Feels Like: 62 °F
Forecast: 54 / 75 °F
Wind: 13 mph from Northeast

Location: Pueblo Memorial Airport

Current Time: May 31, 2016 at 10:12:04 AM

Latest Report: May 31, 2016 at 8:53 AM


Visibility: 10 mi

Pressure: 30.00 "Hg (25.34 "Hg at 1430m altitude)

Humidity: 56%

Dew Point: 46 °F

Location of PuebloLocation

Past Weather in Pueblo — Graph

°F

Pueblo Temperature Yesterday

Maximum temperature yesterday: 83 °F (at 2:53 PM)
Minimum temperature yesterday: 48 °F (at 5:53 AM)
Average temperature yesterday: 66 °F

High & Low Weather Summary for the Past Weeks

 TemperatureHumidityPressure
High91 °F (May 21, 2:53 PM)93% (May 20, 6:04 AM)30.28 "Hg (May 20, 6:04 AM)
Low42 °F (May 19, 5:53 AM)6% (May 25, 6:53 PM)29.46 "Hg (May 22, 6:53 PM)
Average63 °F50%29.82 "Hg
* Reported May 16 8:53 AM — May 31 8:53 AM, Pueblo, Weather by CustomWeather, © 2016

Note: Actual official high and low records may vary slightly from our data, if they occured in-between our weather recording intervals... More about our weather records

Advertising

Pueblo Weather History for the Previous 24 Hours

Scroll right to see more
 ConditionsComfort  
Time TempWeatherWind HumidityBarometerVisibility
8:53 AM
Tue, May 31
62 °FBroken clouds.13 mph56%30.00 "Hg10 mi
7:53 AM60 °FScattered clouds.23 mph60%29.96 "Hg10 mi
6:53 AM58 °FSunny.28 mph67%29.94 "Hg10 mi
5:53 AM56 °FClear.24 mph70%29.93 "Hg10 mi
4:53 AM57 °FClear.25 mph60%29.89 "Hg10 mi
3:53 AM53 °FClear.No wind77%29.88 "Hg10 mi
2:53 AM54 °FClear.8 mph69%29.86 "Hg10 mi
1:53 AM56 °FClear.8 mph70%29.85 "Hg10 mi
12:53 AM57 °FClear.5 mph67%29.86 "Hg10 mi
11:53 PM
Mon, May 30
60 °FClear.5 mph58%29.85 "Hg10 mi
10:53 PM63 °FClear.10 mph54%29.85 "Hg10 mi
9:53 PM66 °FPassing clouds.8 mph49%29.85 "Hg10 mi
8:53 PM70 °FThundershowers. Scattered clouds.17 mph37%29.80 "Hg10 mi
7:53 PM73 °FSunny.10 mph37%29.79 "Hg10 mi
6:53 PM76 °FSunny.8 mph35%29.76 "Hg10 mi
5:53 PM78 °FSunny.6 mph27%29.74 "Hg10 mi
4:53 PM82 °FPassing clouds.13 mph20%29.74 "Hg10 mi
3:53 PM81 °FThundershowers. Sunny.15 mph19%29.72 "Hg10 mi
2:53 PM83 °FSunny.8 mph24%29.74 "Hg10 mi
1:53 PM82 °FSunny.12 mph29%29.76 "Hg10 mi
12:53 PM79 °FSunny.7 mph30%29.80 "Hg10 mi
11:53 AM76 °FSunny.6 mph36%29.82 "Hg10 mi
10:53 AM73 °FSunny.No wind40%29.85 "Hg10 mi
Weather by CustomWeather, © 2016

See weather overviewHow to use our weather pages